| time (UTC) | temp F | wind direction | speed MPH | gust MPH | rain 1hr in | rain 24hr in | rain mn in | humidity % | barometer mb |
| 20260831121600 | 64 | 16 | 1.0 | 3.0 | 0.00 | 0.00 | 0.00 | 93 | 1020.8 |
| 20260831121100 | 64 | 13 | 0.0 | 2.0 | 0.00 | 0.00 | 0.00 | 93 | 1020.9 |
| 20260831121002 | 64 | 13 | 0.0 | 2.0 | 0.00 | 0.00 | 0.00 | 93 | 1020.8 |
| 20260831120600 | 63 | 13 | 0.0 | 2.0 | 0.00 | 0.00 | 0.00 | 93 | 1020.8 |
| 20260831120100 | 63 | 13 | 0.0 | 1.0 | 0.00 | 0.00 | 0.00 | 93 | 1020.8 |
| 20260831115557 | 63 | 13 | 0.0 | 0.0 | 0.00 | 0.00 | 0.00 | 93 | 1020.8 |
| 20260831115057 | 63 | 13 | 0.0 | 0.0 | 0.00 | 0.00 | 0.00 | 92 | 1020.6 |
| 20260831114559 | 63 | 13 | 0.0 | 0.0 | 0.00 | 0.00 | 0.00 | 92 | 1020.7 |
| 20260831114057 | 63 | 13 | 0.0 | 0.0 | 0.00 | 0.00 | 0.00 | 92 | 1020.6 |
| 20260831113557 | 63 | 13 | 0.0 | 0.0 | 0.00 | 0.00 | 0.00 | 92 | 1020.7 |
| 20260831113102 | 63 | 13 | 0.0 | 1.0 | 0.00 | 0.00 | 0.00 | 92 | 1020.7 |
| 20260831112557 | 63 | 13 | 0.0 | 3.0 | 0.00 | 0.00 | 0.00 | 92 | 1020.6 |
| 20260831112057 | 63 | 13 | 1.0 | 3.0 | 0.00 | 0.00 | 0.00 | 92 | 1020.6 |
| 20260831111559 | 62 | 13 | 0.0 | 0.0 | 0.00 | 0.00 | 0.00 | 92 | 1020.4 |
| 20260831111055 | 62 | 13 | 0.0 | 0.0 | 0.00 | 0.00 | 0.00 | 92 | 1020.4 |
| 20260831110557 | 62 | 13 | 0.0 | 2.0 | 0.00 | 0.00 | 0.00 | 92 | 1020.4 |
| 20260831110055 | 62 | 13 | 0.0 | 2.0 | 0.00 | 0.00 | 0.00 | 92 | 1020.2 |
| 20260831105553 | 62 | 13 | 0.0 | 1.0 | 0.00 | 0.00 | 0.00 | 91 | 1020.3 |
| 20260831105053 | 62 | 13 | 0.0 | 0.0 | 0.00 | 0.00 | 0.00 | 91 | 1020.2 |
| 20260831104552 | 62 | 13 | 0.0 | 0.0 | 0.00 | 0.00 | 0.00 | 91 | 1020.0 |
| 20260831104051 | 62 | 13 | 0.0 | 0.0 | 0.00 | 0.00 | 0.00 | 91 | 1020.0 |
| 20260831103551 | 62 | 13 | 0.0 | 2.0 | 0.00 | 0.00 | 0.00 | 91 | 1020.0 |
| 20260831103050 | 62 | 13 | 0.0 | 2.0 | 0.00 | 0.00 | 0.00 | 91 | 1020.0 |
| 20260831102550 | 63 | 13 | 0.0 | 0.0 | 0.00 | 0.00 | 0.00 | 91 | 1019.9 |
| 20260831102050 | 63 | 13 | 0.0 | 0.0 | 0.00 | 0.00 | 0.00 | 91 | 1019.9 |
| 20260831101550 | 63 | 13 | 0.0 | 0.0 | 0.00 | 0.00 | 0.00 | 91 | 1019.9 |
| 20260831101050 | 63 | 13 | 0.0 | 2.0 | 0.00 | 0.00 | 0.00 | 91 | 1019.9 |
| 20260831100548 | 63 | 13 | 0.0 | 2.0 | 0.00 | 0.00 | 0.00 | 91 | 1019.9 |
| 20260831100113 | 63 | 13 | 0.0 | 2.0 | 0.00 | 0.00 | 0.00 | 91 | 1019.9 |
| 20260831095547 | 63 | 13 | 0.0 | 2.0 | 0.00 | 0.00 | 0.00 | 91 | 1019.8 |
| 20260831095048 | 63 | 13 | 0.0 | 3.0 | 0.00 | 0.00 | 0.00 | 91 | 1019.7 |
| 20260831094547 | 63 | 13 | 1.0 | 3.0 | 0.00 | 0.00 | 0.00 | 91 | 1019.7 |
| 20260831094047 | 63 | 12 | 0.0 | 2.0 | 0.00 | 0.00 | 0.00 | 91 | 1019.6 |
| 20260831093547 | 63 | 12 | 0.0 | 0.0 | 0.00 | 0.00 | 0.00 | 91 | 1019.6 |
| 20260831093047 | 63 | 12 | 0.0 | 2.0 | 0.00 | 0.00 | 0.00 | 91 | 1019.6 |
| 20260831092549 | 63 | 12 | 0.0 | 2.0 | 0.00 | 0.00 | 0.00 | 91 | 1019.7 |
| 20260831092045 | 63 | 12 | 0.0 | 3.0 | 0.00 | 0.00 | 0.00 | 91 | 1019.7 |
| 20260831091551 | 63 | 12 | 0.0 | 3.0 | 0.00 | 0.00 | 0.00 | 91 | 1019.7 |
| 20260831091045 | 63 | 12 | 1.0 | 3.0 | 0.00 | 0.00 | 0.00 | 91 | 1019.7 |
| 20260831090545 | 63 | 12 | 1.0 | 3.0 | 0.00 | 0.00 | 0.00 | 91 | 1019.7 |
| 20260831090045 | 63 | 12 | 0.0 | 3.0 | 0.00 | 0.00 | 0.00 | 91 | 1019.6 |
| 20260831085544 | 63 | 12 | 0.0 | 0.0 | 0.00 | 0.00 | 0.00 | 91 | 1019.5 |
| 20260831085043 | 63 | 12 | 0.0 | 0.0 | 0.00 | 0.00 | 0.00 | 91 | 1019.6 |
| 20260831084608 | 64 | 12 | 0.0 | 0.0 | 0.00 | 0.00 | 0.00 | 91 | 1019.6 |
| 20260831084043 | 64 | 12 | 0.0 | 2.0 | 0.00 | 0.00 | 0.00 | 91 | 1019.6 |
| 20260831083542 | 64 | 12 | 0.0 | 2.0 | 0.00 | 0.00 | 0.00 | 91 | 1019.5 |
| 20260831083043 | 64 | 12 | 1.0 | 2.0 | 0.00 | 0.00 | 0.00 | 91 | 1019.4 |
| 20260831082541 | 64 | 12 | 0.0 | 4.0 | 0.00 | 0.00 | 0.00 | 91 | 1019.5 |
| 20260831082041 | 63 | 34 | 1.0 | 3.0 | 0.00 | 0.00 | 0.00 | 90 | 1019.4 |
| 20260831081541 | 63 | 60 | 0.0 | 2.0 | 0.00 | 0.00 | 0.00 | 90 | 1019.3 |
| 20260831081041 | 63 | 60 | 1.0 | 3.0 | 0.00 | 0.00 | 0.00 | 90 | 1019.4 |
| 20260831080542 | 63 | 60 | 1.0 | 3.0 | 0.00 | 0.00 | 0.00 | 90 | 1019.5 |
| 20260831080039 | 63 | 82 | 0.0 | 2.0 | 0.00 | 0.00 | 0.00 | 89 | 1019.5 |
| 20260831075538 | 63 | 82 | 0.0 | 2.0 | 0.00 | 0.00 | 0.00 | 89 | 1019.4 |
| 20260831075041 | 63 | 82 | 1.0 | 2.0 | 0.00 | 0.00 | 0.00 | 89 | 1019.4 |
| 20260831074549 | 63 | 82 | 0.0 | 1.0 | 0.00 | 0.00 | 0.00 | 89 | 1019.4 |
| 20260831074037 | 63 | 83 | 0.0 | 2.0 | 0.00 | 0.00 | 0.00 | 88 | 1019.4 |
| 20260831073537 | 63 | 83 | 0.0 | 2.0 | 0.00 | 0.00 | 0.00 | 88 | 1019.3 |
| 20260831073039 | 64 | 83 | 0.0 | 0.0 | 0.00 | 0.00 | 0.00 | 88 | 1019.2 |
| 20260831072538 | 64 | 83 | 0.0 | 0.0 | 0.00 | 0.00 | 0.00 | 88 | 1019.2 |
| 20260831072036 | 64 | 83 | 0.0 | 0.0 | 0.00 | 0.00 | 0.00 | 88 | 1019.3 |
| 20260831072004 | 64 | 83 | 0.0 | 0.0 | 0.00 | 0.00 | 0.00 | 88 | 1019.3 |
| 20260831071534 | 64 | 83 | 0.0 | 0.0 | 0.00 | 0.00 | 0.00 | 88 | 1019.3 |
| 20260831071034 | 64 | 83 | 0.0 | 0.0 | 0.00 | 0.00 | 0.00 | 88 | 1019.3 |
| 20260831070534 | 64 | 83 | 0.0 | 0.0 | 0.00 | 0.00 | 0.00 | 88 | 1019.3 |
| 20260831070033 | 64 | 83 | 0.0 | 0.0 | 0.00 | 0.00 | 0.00 | 88 | 1019.4 |
| 20260831065534 | 64 | 83 | 0.0 | 0.0 | 0.00 | 0.00 | 0.00 | 88 | 1019.2 |
| 20260831065033 | 65 | 83 | 0.0 | 0.0 | 0.00 | 0.00 | 0.00 | 88 | 1019.1 |
| 20260831064530 | 65 | 83 | 0.0 | 0.0 | 0.00 | 0.00 | 0.00 | 88 | 1019.0 |
| 20260831064030 | 65 | 83 | 0.0 | 0.0 | 0.00 | 0.00 | 0.00 | 88 | 1019.1 |
| 20260831063530 | 65 | 83 | 0.0 | 0.0 | 0.00 | 0.00 | 0.00 | 87 | 1019.2 |
| 20260831063029 | 65 | 83 | 0.0 | 0.0 | 0.00 | 0.00 | 0.00 | 87 | 1019.3 |
| 20260831062529 | 65 | 83 | 0.0 | 0.0 | 0.00 | 0.00 | 0.00 | 87 | 1019.3 |
| 20260831062032 | 65 | 83 | 0.0 | 0.0 | 0.00 | 0.00 | 0.00 | 87 | 1019.2 |
| 20260831061528 | 65 | 83 | 0.0 | 0.0 | 0.00 | 0.00 | 0.00 | 87 | 1019.2 |
| 20260831061028 | 65 | 83 | 0.0 | 0.0 | 0.00 | 0.00 | 0.00 | 86 | 1019.2 |
| 20260831060527 | 66 | 83 | 0.0 | 0.0 | 0.00 | 0.00 | 0.00 | 86 | 1019.3 |
| 20260831060026 | 66 | 83 | 0.0 | 2.0 | 0.00 | 0.00 | 0.00 | 86 | 1019.1 |
| 20260831055526 | 66 | 83 | 0.0 | 2.0 | 0.00 | 0.00 | 0.00 | 86 | 1019.2 |
| 20260831055024 | 66 | 83 | 0.0 | 1.0 | 0.00 | 0.00 | 0.00 | 86 | 1019.2 |
| 20260831054524 | 66 | 83 | 0.0 | 4.0 | 0.00 | 0.00 | 0.00 | 86 | 1019.0 |
| 20260831054023 | 66 | 83 | 0.0 | 4.0 | 0.00 | 0.00 | 0.00 | 86 | 1019.0 |
| 20260831053523 | 67 | 52 | 1.0 | 5.0 | 0.00 | 0.00 | 0.00 | 85 | 1019.1 |
| 20260831053022 | 67 | 52 | 2.0 | 5.0 | 0.00 | 0.00 | 0.00 | 84 | 1019.2 |
| 20260831052521 | 67 | 327 | 1.0 | 2.0 | 0.00 | 0.00 | 0.00 | 84 | 1019.1 |
| 20260831052020 | 67 | 326 | 0.0 | 0.0 | 0.00 | 0.00 | 0.00 | 84 | 1019.2 |
| 20260831051520 | 67 | 326 | 0.0 | 2.0 | 0.00 | 0.00 | 0.00 | 83 | 1019.1 |
| 20260831051020 | 67 | 326 | 0.0 | 2.0 | 0.00 | 0.00 | 0.00 | 83 | 1019.2 |
| 20260831050519 | 68 | 326 | 0.0 | 2.0 | 0.00 | 0.00 | 0.00 | 83 | 1019.2 |
| 20260831050018 | 68 | 326 | 0.0 | 2.0 | 0.00 | 0.00 | 0.00 | 83 | 1019.1 |
| 20260831045517 | 68 | 326 | 0.0 | 0.0 | 0.00 | 0.00 | 0.00 | 82 | 1019.1 |
| 20260831045020 | 68 | 326 | 0.0 | 0.0 | 0.00 | 0.00 | 0.00 | 82 | 1019.2 |
| 20260831044516 | 68 | 326 | 0.0 | 0.0 | 0.00 | 0.00 | 0.00 | 82 | 1019.1 |
| 20260831044015 | 68 | 326 | 0.0 | 0.0 | 0.00 | 0.00 | 0.00 | 82 | 1019.1 |
| 20260831043514 | 69 | 326 | 0.0 | 0.0 | 0.00 | 0.00 | 0.00 | 81 | 1019.2 |
| 20260831043015 | 69 | 326 | 0.0 | 0.0 | 0.00 | 0.00 | 0.00 | 81 | 1019.3 |
| 20260831042515 | 69 | 326 | 0.0 | 0.0 | 0.00 | 0.00 | 0.00 | 81 | 1019.2 |
| 20260831042013 | 69 | 326 | 0.0 | 0.0 | 0.00 | 0.00 | 0.00 | 81 | 1019.2 |
| 20260831041513 | 69 | 326 | 0.0 | 0.0 | 0.00 | 0.00 | 0.00 | 81 | 1019.1 |
| 20260831041011 | 69 | 326 | 0.0 | 0.0 | 0.00 | 0.00 | 0.00 | 79 | 1019.0 |
| 20260831040511 | 69 | 326 | 0.0 | 0.0 | 0.00 | 0.00 | 0.00 | 79 | 1019.1 |
| 20260831040011 | 69 | 326 | 0.0 | 0.0 | 0.00 | 0.00 | 0.00 | 79 | 1019.0 |
| 20260831035508 | 70 | 326 | 0.0 | 0.0 | 0.00 | 0.00 | 0.00 | 78 | 1018.9 |
| 20260831035012 | 70 | 326 | 0.0 | 0.0 | 0.00 | 0.00 | 0.00 | 78 | 1018.9 |
| 20260831034508 | 70 | 326 | 0.0 | 0.0 | 0.00 | 0.00 | 0.00 | 77 | 1019.0 |
| 20260831034008 | 70 | 326 | 0.0 | 0.0 | 0.00 | 0.00 | 0.00 | 77 | 1018.9 |
| 20260831033511 | 70 | 326 | 0.0 | 0.0 | 0.00 | 0.00 | 0.00 | 76 | 1018.9 |
| 20260831033008 | 70 | 326 | 0.0 | 0.0 | 0.00 | 0.00 | 0.00 | 76 | 1018.9 |
| 20260831032509 | 71 | 326 | 0.0 | 2.0 | 0.00 | 0.00 | 0.00 | 76 | 1019.0 |
| 20260831032008 | 71 | 326 | 0.0 | 3.0 | 0.00 | 0.00 | 0.00 | 75 | 1018.9 |
| 20260831031508 | 71 | 326 | 0.0 | 3.0 | 0.00 | 0.00 | 0.00 | 75 | 1018.9 |
| 20260831031007 | 71 | 326 | 0.0 | 0.0 | 0.00 | 0.00 | 0.00 | 74 | 1019.0 |
| 20260831030507 | 71 | 326 | 0.0 | 0.0 | 0.00 | 0.00 | 0.00 | 74 | 1019.0 |
| 20260831030007 | 72 | 326 | 0.0 | 0.0 | 0.00 | 0.00 | 0.00 | 74 | 1019.1 |
| 20260831025507 | 72 | 326 | 0.0 | 0.0 | 0.00 | 0.00 | 0.00 | 74 | 1019.2 |
| 20260831025007 | 72 | 326 | 0.0 | 2.0 | 0.00 | 0.00 | 0.00 | 74 | 1019.3 |
| 20260831024511 | 72 | 326 | 0.0 | 5.0 | 0.00 | 0.00 | 0.00 | 73 | 1019.3 |
| 20260831024007 | 72 | 326 | 1.0 | 6.0 | 0.00 | 0.00 | 0.00 | 73 | 1019.2 |
| 20260831023507 | 72 | 315 | 3.0 | 6.0 | 0.00 | 0.00 | 0.00 | 73 | 1019.3 |
| 20260831023008 | 72 | 324 | 2.0 | 5.0 | 0.00 | 0.00 | 0.00 | 73 | 1019.3 |
| 20260831022506 | 72 | 322 | 1.0 | 6.0 | 0.00 | 0.00 | 0.00 | 73 | 1019.2 |
| 20260831022006 | 72 | 323 | 1.0 | 6.0 | 0.00 | 0.00 | 0.00 | 73 | 1019.0 |
| 20260831021506 | 72 | 302 | 1.0 | 5.0 | 0.00 | 0.00 | 0.00 | 73 | 1019.1 |
| 20260831021005 | 72 | 320 | 1.0 | 6.0 | 0.00 | 0.00 | 0.00 | 73 | 1019.1 |
| 20260831020505 | 72 | 307 | 3.0 | 6.0 | 0.00 | 0.00 | 0.00 | 72 | 1019.1 |
| 20260831020006 | 72 | 329 | 0.0 | 5.0 | 0.00 | 0.00 | 0.00 | 73 | 1019.1 |
| 20260831015504 | 72 | 319 | 1.0 | 10.0 | 0.00 | 0.00 | 0.00 | 73 | 1019.1 |
| 20260831015004 | 72 | 284 | 3.0 | 10.0 | 0.00 | 0.00 | 0.00 | 72 | 1019.2 |
| 20260831014506 | 73 | 311 | 3.0 | 6.0 | 0.00 | 0.00 | 0.00 | 72 | 1019.1 |
| 20260831014004 | 73 | 323 | 2.0 | 6.0 | 0.00 | 0.00 | 0.00 | 72 | 1019.0 |
| 20260831013504 | 73 | 348 | 2.0 | 6.0 | 0.00 | 0.00 | 0.00 | 73 | 1019.0 |
| 20260831013004 | 73 | 336 | 1.0 | 5.0 | 0.00 | 0.00 | 0.00 | 73 | 1018.9 |
| 20260831012504 | 73 | 336 | 2.0 | 9.0 | 0.00 | 0.00 | 0.00 | 73 | 1018.9 |
| 20260831012005 | 73 | 335 | 4.0 | 9.0 | 0.00 | 0.00 | 0.00 | 73 | 1018.9 |
| 20260831011512 | 73 | 302 | 3.0 | 8.0 | 0.00 | 0.00 | 0.00 | 73 | 1018.8 |
| 20260831011003 | 72 | 336 | 3.0 | 9.0 | 0.00 | 0.00 | 0.00 | 74 | 1018.8 |
| 20260831010504 | 72 | 315 | 3.0 | 9.0 | 0.00 | 0.00 | 0.00 | 74 | 1018.7 |
| 20260831010007 | 72 | 319 | 2.0 | 5.0 | 0.00 | 0.00 | 0.00 | 75 | 1018.5 |
| 20260831005503 | 72 | 323 | 1.0 | 5.0 | 0.00 | 0.00 | 0.00 | 75 | 1018.5 |
| 20260831005004 | 72 | 323 | 2.0 | 6.0 | 0.00 | 0.00 | 0.00 | 75 | 1018.5 |
| 20260831004503 | 72 | 316 | 3.0 | 8.0 | 0.00 | 0.00 | 0.00 | 76 | 1018.3 |
| 20260831004005 | 72 | 299 | 2.0 | 5.0 | 0.00 | 0.00 | 0.00 | 77 | 1018.2 |
| 20260831003503 | 72 | 297 | 2.0 | 5.0 | 0.00 | 0.00 | 0.00 | 79 | 1018.2 |
| 20260831003002 | 72 | 296 | 1.0 | 4.0 | 0.00 | 0.00 | 0.00 | 80 | 1018.0 |
| 20260831002503 | 71 | 296 | 2.0 | 4.0 | 0.00 | 0.00 | 0.00 | 80 | 1017.9 |
| 20260831002004 | 71 | 295 | 1.0 | 5.0 | 0.00 | 0.00 | 0.00 | 81 | 1017.9 |
| 20260831001507 | 71 | 295 | 0.0 | 5.0 | 0.00 | 0.00 | 0.00 | 82 | 1017.7 |
| 20260831001002 | 72 | 255 | 2.0 | 5.0 | 0.00 | 0.00 | 0.00 | 84 | 1017.8 |
| 20260831000502 | 72 | 239 | 1.0 | 2.0 | 0.00 | 0.00 | 0.00 | 85 | 1017.8 |
| 20260831000001 | 72 | 239 | 0.0 | 1.0 | 0.00 | 0.00 | 0.00 | 86 | 1017.6 |
| 20260830235503 | 72 | 239 | 0.0 | 3.0 | 0.00 | 0.00 | 0.00 | 87 | 1017.7 |
| 20260830235002 | 72 | 239 | 0.0 | 3.0 | 0.00 | 0.00 | 0.00 | 86 | 1017.6 |
| 20260830234501 | 72 | 239 | 1.0 | 3.0 | 0.00 | 0.00 | 0.00 | 87 | 1017.5 |
| 20260830234002 | 72 | 239 | 0.0 | 0.0 | 0.00 | 0.00 | 0.00 | 87 | 1017.6 |
| 20260830233501 | 72 | 239 | 0.0 | 2.0 | 0.00 | 0.00 | 0.00 | 87 | 1017.8 |
| 20260830233001 | 73 | 239 | 0.0 | 3.0 | 0.00 | 0.00 | 0.00 | 87 | 1017.8 |
| 20260830232601 | 73 | 239 | 0.0 | 3.0 | 0.00 | 0.00 | 0.00 | 86 | 1017.7 |
| 20260830232101 | 73 | 186 | 1.0 | 2.0 | 0.00 | 0.00 | 0.00 | 86 | 1017.7 |
| 20260830231609 | 73 | 186 | 0.0 | 0.0 | 0.00 | 0.00 | 0.00 | 86 | 1017.6 |
| 20260830231059 | 73 | 186 | 0.0 | 1.0 | 0.00 | 0.00 | 0.00 | 86 | 1017.5 |
| 20260830230559 | 73 | 186 | 0.0 | 2.0 | 0.00 | 0.00 | 0.00 | 86 | 1017.4 |
| 20260830230059 | 73 | 186 | 1.0 | 6.0 | 0.00 | 0.00 | 0.00 | 86 | 1017.4 |
| 20260830225559 | 73 | 186 | 0.0 | 6.0 | 0.00 | 0.00 | 0.00 | 86 | 1017.4 |
| 20260830225102 | 73 | 186 | 1.0 | 10.0 | 0.00 | 0.00 | 0.00 | 86 | 1017.4 |
| 20260830224608 | 73 | 199 | 4.0 | 10.0 | 0.00 | 0.00 | 0.00 | 86 | 1017.6 |
| 20260830224059 | 73 | 192 | 3.0 | 6.0 | 0.00 | 0.00 | 0.00 | 86 | 1017.4 |
| 20260830223559 | 73 | 183 | 3.0 | 7.0 | 0.00 | 0.00 | 0.00 | 85 | 1017.5 |
| 20260830223059 | 73 | 212 | 2.0 | 6.0 | 0.00 | 0.00 | 0.00 | 85 | 1017.4 |
| 20260830222601 | 73 | 212 | 3.0 | 6.0 | 0.00 | 0.00 | 0.00 | 85 | 1017.3 |
| 20260830222057 | 73 | 190 | 2.0 | 5.0 | 0.00 | 0.00 | 0.00 | 85 | 1017.4 |
| 20260830221557 | 74 | 185 | 2.0 | 6.0 | 0.00 | 0.00 | 0.00 | 84 | 1017.4 |
| 20260830221057 | 74 | 211 | 2.0 | 6.0 | 0.00 | 0.00 | 0.00 | 84 | 1017.4 |
| 20260830220558 | 74 | 184 | 3.0 | 8.0 | 0.00 | 0.00 | 0.00 | 83 | 1017.4 |
| 20260830220057 | 74 | 202 | 3.0 | 8.0 | 0.00 | 0.00 | 0.00 | 83 | 1017.4 |
| 20260830215557 | 74 | 190 | 2.0 | 6.0 | 0.00 | 0.00 | 0.00 | 82 | 1017.2 |
| 20260830215057 | 74 | 193 | 2.0 | 5.0 | 0.00 | 0.00 | 0.00 | 82 | 1017.3 |
| 20260830214558 | 74 | 160 | 1.0 | 6.0 | 0.00 | 0.00 | 0.00 | 82 | 1017.3 |
| 20260830214056 | 74 | 180 | 1.0 | 6.0 | 0.00 | 0.00 | 0.00 | 82 | 1017.2 |
| 20260830213555 | 74 | 192 | 2.0 | 7.0 | 0.00 | 0.00 | 0.00 | 81 | 1017.1 |
| 20260830213055 | 75 | 198 | 2.0 | 7.0 | 0.00 | 0.00 | 0.00 | 81 | 1017.0 |
| 20260830212555 | 75 | 199 | 2.0 | 7.0 | 0.00 | 0.00 | 0.00 | 81 | 1017.1 |
| 20260830212054 | 75 | 169 | 3.0 | 7.0 | 0.00 | 0.00 | 0.00 | 80 | 1017.1 |
| 20260830211555 | 75 | 174 | 1.0 | 6.0 | 0.00 | 0.00 | 0.00 | 80 | 1017.2 |
| 20260830211053 | 75 | 200 | 2.0 | 6.0 | 0.00 | 0.00 | 0.00 | 80 | 1017.3 |
| 20260830210553 | 75 | 188 | 2.0 | 9.0 | 0.00 | 0.00 | 0.00 | 80 | 1017.2 |
| 20260830210100 | 75 | 201 | 3.0 | 9.0 | 0.00 | 0.00 | 0.00 | 79 | 1017.3 |
| 20260830205551 | 76 | 178 | 2.0 | 6.0 | 0.00 | 0.00 | 0.00 | 79 | 1017.4 |
| 20260830205051 | 76 | 209 | 2.0 | 5.0 | 0.00 | 0.00 | 0.00 | 79 | 1017.4 |
| 20260830204557 | 76 | 183 | 2.0 | 8.0 | 0.00 | 0.00 | 0.00 | 78 | 1017.4 |
| 20260830204052 | 76 | 178 | 2.0 | 8.0 | 0.00 | 0.00 | 0.00 | 77 | 1017.4 |
| 20260830203552 | 76 | 211 | 3.0 | 8.0 | 0.00 | 0.00 | 0.00 | 77 | 1017.4 |
| 20260830203051 | 77 | 205 | 2.0 | 7.0 | 0.00 | 0.00 | 0.00 | 77 | 1017.4 |
| 20260830202551 | 77 | 184 | 2.0 | 5.0 | 0.00 | 0.00 | 0.00 | 76 | 1017.5 |
| 20260830202049 | 77 | 199 | 3.0 | 7.0 | 0.00 | 0.00 | 0.00 | 76 | 1017.6 |
| 20260830201554 | 77 | 209 | 2.0 | 8.0 | 0.00 | 0.00 | 0.00 | 76 | 1017.5 |
| 20260830201049 | 77 | 192 | 4.0 | 9.0 | 0.00 | 0.00 | 0.00 | 75 | 1017.5 |
| 20260830200548 | 77 | 200 | 4.0 | 9.0 | 0.00 | 0.00 | 0.00 | 75 | 1017.6 |
| 20260830200104 | 77 | 190 | 3.0 | 9.0 | 0.00 | 0.00 | 0.00 | 75 | 1017.6 |
| 20260830195548 | 77 | 153 | 4.0 | 9.0 | 0.00 | 0.00 | 0.00 | 75 | 1017.6 |
| 20260830195048 | 77 | 152 | 3.0 | 10.0 | 0.00 | 0.00 | 0.00 | 75 | 1017.6 |
| 20260830194556 | 77 | 165 | 2.0 | 9.0 | 0.00 | 0.00 | 0.00 | 75 | 1017.7 |
| 20260830194046 | 77 | 147 | 4.0 | 9.0 | 0.00 | 0.00 | 0.00 | 75 | 1017.9 |
| 20260830193547 | 77 | 194 | 2.0 | 6.0 | 0.00 | 0.00 | 0.00 | 76 | 1017.9 |
| 20260830193046 | 77 | 174 | 2.0 | 7.0 | 0.00 | 0.00 | 0.00 | 74 | 1018.0 |
| 20260830192544 | 77 | 192 | 2.0 | 7.0 | 0.00 | 0.00 | 0.00 | 74 | 1017.9 |
| 20260830192044 | 77 | 190 | 2.0 | 8.0 | 0.00 | 0.00 | 0.00 | 74 | 1017.9 |
| 20260830191543 | 77 | 165 | 3.0 | 9.0 | 0.00 | 0.00 | 0.00 | 74 | 1018.0 |
| 20260830191042 | 77 | 165 | 2.0 | 7.0 | 0.00 | 0.00 | 0.00 | 74 | 1018.2 |
| 20260830190542 | 77 | 188 | 2.0 | 7.0 | 0.00 | 0.00 | 0.00 | 73 | 1018.3 |
| 20260830190042 | 77 | 161 | 4.0 | 7.0 | 0.00 | 0.00 | 0.00 | 72 | 1018.3 |
| 20260830185542 | 77 | 157 | 3.0 | 6.0 | 0.00 | 0.00 | 0.00 | 73 | 1018.2 |
| 20260830185041 | 77 | 180 | 2.0 | 4.0 | 0.00 | 0.00 | 0.00 | 72 | 1018.4 |
| 20260830184541 | 78 | 157 | 1.0 | 7.0 | 0.00 | 0.00 | 0.00 | 71 | 1018.4 |
| 20260830184041 | 78 | 182 | 1.0 | 7.0 | 0.00 | 0.00 | 0.00 | 72 | 1018.7 |
| 20260830183538 | 78 | 188 | 3.0 | 7.0 | 0.00 | 0.00 | 0.00 | 70 | 1018.7 |
| 20260830183038 | 78 | 182 | 3.0 | 7.0 | 0.00 | 0.00 | 0.00 | 70 | 1018.7 |
| 20260830182538 | 78 | 212 | 3.0 | 8.0 | 0.00 | 0.00 | 0.00 | 71 | 1018.7 |
| 20260830182037 | 78 | 227 | 1.0 | 8.0 | 0.00 | 0.00 | 0.00 | 72 | 1018.6 |
| 20260830181537 | 78 | 207 | 2.0 | 8.0 | 0.00 | 0.00 | 0.00 | 70 | 1018.6 |
| 20260830181042 | 78 | 183 | 4.0 | 8.0 | 0.00 | 0.00 | 0.00 | 70 | 1018.7 |
| 20260830180534 | 78 | 267 | 3.0 | 7.0 | 0.00 | 0.00 | 0.00 | 70 | 1018.8 |
| 20260830180035 | 77 | 223 | 3.0 | 8.0 | 0.00 | 0.00 | 0.00 | 71 | 1018.8 |
| 20260830175535 | 77 | 180 | 1.0 | 8.0 | 0.00 | 0.00 | 0.00 | 71 | 1018.8 |
| 20260830175033 | 77 | 183 | 4.0 | 9.0 | 0.00 | 0.00 | 0.00 | 70 | 1018.8 |
| 20260830174536 | 77 | 160 | 3.0 | 9.0 | 0.00 | 0.00 | 0.00 | 70 | 1018.7 |
| 20260830174032 | 77 | 210 | 3.0 | 8.0 | 0.00 | 0.00 | 0.00 | 70 | 1018.9 |
| 20260830173533 | 77 | 177 | 2.0 | 6.0 | 0.00 | 0.00 | 0.00 | 70 | 1019.1 |
| 20260830173045 | 77 | 175 | 2.0 | 6.0 | 0.00 | 0.00 | 0.00 | 69 | 1019.1 |
| 20260830172531 | 77 | 212 | 4.0 | 6.0 | 0.00 | 0.00 | 0.00 | 70 | 1019.0 |
| 20260830172032 | 77 | 229 | 1.0 | 7.0 | 0.00 | 0.00 | 0.00 | 70 | 1019.1 |
| 20260830171529 | 77 | 265 | 4.0 | 9.0 | 0.00 | 0.00 | 0.00 | 69 | 1019.1 |
| 20260830171028 | 77 | 237 | 4.0 | 12.0 | 0.00 | 0.00 | 0.00 | 68 | 1019.1 |
| 20260830170528 | 76 | 231 | 2.0 | 12.0 | 0.00 | 0.00 | 0.00 | 69 | 1019.2 |
| 20260830170026 | 76 | 195 | 2.0 | 8.0 | 0.00 | 0.00 | 0.00 | 72 | 1019.2 |
| 20260830165525 | 76 | 192 | 1.0 | 7.0 | 0.00 | 0.00 | 0.00 | 72 | 1019.3 |
| 20260830165029 | 76 | 165 | 1.0 | 6.0 | 0.00 | 0.00 | 0.00 | 72 | 1019.3 |
| 20260830164522 | 75 | 162 | 3.0 | 6.0 | 0.00 | 0.00 | 0.00 | 72 | 1019.2 |
| 20260830164021 | 75 | 186 | 1.0 | 6.0 | 0.00 | 0.00 | 0.00 | 72 | 1019.4 |
| 20260830163520 | 75 | 194 | 2.0 | 7.0 | 0.00 | 0.00 | 0.00 | 72 | 1019.4 |
| 20260830163023 | 75 | 194 | 2.0 | 6.0 | 0.00 | 0.00 | 0.00 | 71 | 1019.4 |
| 20260830162517 | 75 | 207 | 3.0 | 8.0 | 0.00 | 0.00 | 0.00 | 71 | 1019.5 |
| 20260830162015 | 74 | 154 | 5.0 | 8.0 | 0.00 | 0.00 | 0.00 | 70 | 1019.7 |
| 20260830161519 | 74 | 163 | 1.0 | 8.0 | 0.00 | 0.00 | 0.00 | 71 | 1019.8 |
| 20260830161014 | 74 | 162 | 2.0 | 8.0 | 0.00 | 0.00 | 0.00 | 70 | 1019.9 |
| 20260830160514 | 74 | 198 | 3.0 | 8.0 | 0.00 | 0.00 | 0.00 | 68 | 1019.9 |
| 20260830160018 | 74 | 165 | 2.0 | 8.0 | 0.00 | 0.00 | 0.00 | 69 | 1020.0 |
| 20260830155513 | 74 | 147 | 2.0 | 6.0 | 0.00 | 0.00 | 0.00 | 69 | 1020.1 |
| 20260830155015 | 74 | 190 | 2.0 | 10.0 | 0.00 | 0.00 | 0.00 | 69 | 1020.1 |
| 20260830154513 | 74 | 162 | 5.0 | 10.0 | 0.00 | 0.00 | 0.00 | 68 | 1020.2 |
| 20260830154010 | 74 | 207 | 3.0 | 11.0 | 0.00 | 0.00 | 0.00 | 70 | 1020.2 |
| 20260830153508 | 74 | 176 | 6.0 | 11.0 | 0.00 | 0.00 | 0.00 | 69 | 1020.2 |
| 20260830153107 | 73 | 192 | 3.0 | 10.0 | 0.00 | 0.00 | 0.00 | 70 | 1020.3 |
| 20260830152511 | 73 | 176 | 5.0 | 10.0 | 0.00 | 0.00 | 0.00 | 70 | 1020.4 |
| 20260830152006 | 73 | 154 | 5.0 | 10.0 | 0.00 | 0.00 | 0.00 | 70 | 1020.4 |
| 20260830151506 | 73 | 232 | 4.0 | 10.0 | 0.00 | 0.00 | 0.00 | 69 | 1020.5 |
| 20260830151006 | 73 | 190 | 5.0 | 10.0 | 0.00 | 0.00 | 0.00 | 70 | 1020.5 |
| 20260830150505 | 73 | 152 | 2.0 | 8.0 | 0.00 | 0.00 | 0.00 | 71 | 1020.5 |
| 20260830150005 | 73 | 232 | 3.0 | 8.0 | 0.00 | 0.00 | 0.00 | 71 | 1020.5 |
| 20260830145505 | 73 | 191 | 2.0 | 9.0 | 0.00 | 0.00 | 0.00 | 70 | 1020.5 |
| 20260830145005 | 73 | 169 | 2.0 | 10.0 | 0.00 | 0.00 | 0.00 | 71 | 1020.5 |
| 20260830144505 | 73 | 236 | 2.0 | 10.0 | 0.00 | 0.00 | 0.00 | 70 | 1020.5 |
| 20260830144006 | 73 | 218 | 4.0 | 10.0 | 0.00 | 0.00 | 0.00 | 69 | 1020.6 |
| 20260830143503 | 73 | 172 | 4.0 | 9.0 | 0.00 | 0.00 | 0.00 | 71 | 1020.6 |
| 20260830143003 | 73 | 153 | 4.0 | 11.0 | 0.00 | 0.00 | 0.00 | 70 | 1020.7 |
| 20260830142503 | 73 | 145 | 3.0 | 11.0 | 0.00 | 0.00 | 0.00 | 71 | 1020.7 |
| 20260830142101 | 72 | 140 | 3.0 | 11.0 | 0.00 | 0.00 | 0.00 | 71 | 1020.7 |
| 20260830141601 | 72 | 166 | 6.0 | 11.0 | 0.00 | 0.00 | 0.00 | 70 | 1020.7 |
| 20260830141057 | 71 | 236 | 3.0 | 8.0 | 0.00 | 0.00 | 0.00 | 74 | 1020.7 |
| 20260830140556 | 70 | 190 | 3.0 | 8.0 | 0.00 | 0.00 | 0.00 | 76 | 1020.6 |
| 20260830140058 | 70 | 207 | 2.0 | 8.0 | 0.00 | 0.00 | 0.00 | 77 | 1020.8 |
| 20260830135554 | 69 | 186 | 2.0 | 7.0 | 0.00 | 0.00 | 0.00 | 77 | 1020.8 |
| 20260830135053 | 69 | 154 | 2.0 | 6.0 | 0.00 | 0.00 | 0.00 | 80 | 1020.7 |
| 20260830134554 | 68 | 190 | 3.0 | 7.0 | 0.00 | 0.00 | 0.00 | 79 | 1020.7 |
| 20260830134051 | 68 | 242 | 3.0 | 6.0 | 0.00 | 0.00 | 0.00 | 80 | 1020.7 |
| 20260830133548 | 67 | 171 | 2.0 | 7.0 | 0.00 | 0.00 | 0.00 | 81 | 1020.7 |
| 20260830133048 | 67 | 239 | 2.0 | 7.0 | 0.00 | 0.00 | 0.00 | 80 | 1020.9 |
| 20260830132547 | 67 | 238 | 2.0 | 8.0 | 0.00 | 0.00 | 0.00 | 81 | 1021.0 |
| 20260830132045 | 66 | 190 | 4.0 | 8.0 | 0.00 | 0.00 | 0.00 | 81 | 1021.1 |
| 20260830131600 | 66 | 209 | 3.0 | 8.0 | 0.00 | 0.00 | 0.00 | 82 | 1021.0 |
| 20260830131043 | 65 | 176 | 3.0 | 8.0 | 0.00 | 0.00 | 0.00 | 83 | 1021.1 |
| 20260830130542 | 64 | 204 | 2.0 | 8.0 | 0.00 | 0.00 | 0.00 | 84 | 1021.2 |
| 20260830130044 | 64 | 250 | 3.0 | 7.0 | 0.00 | 0.00 | 0.00 | 85 | 1021.2 |
| 20260830125538 | 64 | 145 | 2.0 | 7.0 | 0.00 | 0.00 | 0.00 | 86 | 1021.2 |
| 20260830125037 | 63 | 234 | 3.0 | 7.0 | 0.00 | 0.00 | 0.00 | 86 | 1021.3 |
| 20260830124536 | 63 | 153 | 3.0 | 7.0 | 0.00 | 0.00 | 0.00 | 86 | 1021.4 |
| 20260830124038 | 62 | 192 | 1.0 | 8.0 | 0.00 | 0.00 | 0.00 | 86 | 1021.4 |
| 20260830123534 | 62 | 177 | 3.0 | 8.0 | 0.00 | 0.00 | 0.00 | 86 | 1021.6 |
| 20260830123033 | 62 | 156 | 2.0 | 6.0 | 0.00 | 0.00 | 0.00 | 86 | 1021.6 |
| 20260830122534 | 62 | 202 | 2.0 | 8.0 | 0.00 | 0.00 | 0.00 | 87 | 1021.6 |
| 20260830122031 | 62 | 241 | 4.0 | 8.0 | 0.00 | 0.00 | 0.00 | 87 | 1021.8 |